Time,TemperatureF,DewpointF,PressureIn,WindDirection,WindDirectionDegrees,WindSpeedMPH,WindSpeedGustMPH,Humidity,HourlyPrecipIn,Conditions,Clouds,dailyrainin,SoftwareType,DateUTC
2013-02-16 00:02:00,24.0,18.0,30.11,SSW,213,2.0,3.0,77,0.00,,,0.00,,2013-02-16 05:02:00,
2013-02-16 00:12:00,24.0,18.0,30.11,SSW,213,2.0,3.0,77,0.00,,,0.00,,2013-02-16 05:12:00,
2013-02-16 00:22:00,24.0,18.0,30.10,SW,221,2.0,4.0,76,0.00,,,0.00,,2013-02-16 05:22:00,
2013-02-16 00:32:00,24.0,18.0,30.09,SW,215,4.0,6.0,76,0.00,,,0.00,,2013-02-16 05:32:00,
2013-02-16 00:42:00,24.0,18.0,30.09,SW,215,4.0,6.0,76,0.00,,,0.00,,2013-02-16 05:42:00,
2013-02-16 00:52:00,24.0,17.0,30.09,SSW,204,3.0,5.0,75,0.00,,,0.00,,2013-02-16 05:52:00,
2013-02-16 01:02:00,24.0,18.0,30.09,SSW,211,3.0,5.0,76,0.00,,,0.00,,2013-02-16 06:02:00,
2013-02-16 01:11:00,24.0,18.0,30.09,SSW,211,3.0,5.0,76,0.00,,,0.00,,2013-02-16 06:11:00,
2013-02-16 01:21:00,24.0,18.0,30.09,SW,217,1.0,3.0,78,0.00,,,0.00,,2013-02-16 06:21:00,
2013-02-16 01:32:00,24.0,18.0,30.09,SW,217,0.0,2.0,79,0.00,,,0.00,,2013-02-16 06:32:00,
2013-02-16 01:42:00,24.0,18.0,30.09,SW,217,0.0,2.0,79,0.00,,,0.00,,2013-02-16 06:42:00,
2013-02-16 01:52:00,24.0,18.0,30.08,SW,217,0.0,2.0,79,0.00,,,0.00,,2013-02-16 06:52:00,
2013-02-16 02:02:00,23.0,18.0,30.08,SW,217,0.0,0.0,80,0.00,,,0.00,,2013-02-16 07:02:00,
2013-02-16 02:11:00,23.0,18.0,30.08,SW,217,0.0,0.0,80,0.00,,,0.00,,2013-02-16 07:11:00,
2013-02-16 02:21:00,23.0,18.0,30.08,SW,217,0.0,0.0,81,0.00,,,0.00,,2013-02-16 07:21:00,
2013-02-16 02:32:00,23.0,18.0,30.08,SW,217,0.0,0.0,81,0.00,,,0.00,,2013-02-16 07:32:00,
2013-02-16 02:42:00,23.0,18.0,30.08,SW,217,0.0,0.0,81,0.00,,,0.00,,2013-02-16 07:42:00,
2013-02-16 02:53:00,23.0,18.0,30.07,SW,217,0.0,0.0,81,0.00,,,0.00,,2013-02-16 07:53:00,
2013-02-16 03:01:00,23.0,19.0,30.07,SW,217,0.0,1.0,83,0.00,,,0.00,,2013-02-16 08:01:00,
2013-02-16 03:11:00,23.0,19.0,30.07,SW,217,0.0,1.0,83,0.00,,,0.00,,2013-02-16 08:11:00,
2013-02-16 03:21:00,24.0,19.0,30.06,WSW,242,0.0,3.0,81,0.00,,,0.00,,2013-02-16 08:21:00,
2013-02-16 03:31:00,24.0,19.0,30.06,WNW,294,4.0,6.0,80,0.00,,,0.00,,2013-02-16 08:31:00,
2013-02-16 03:42:00,24.0,19.0,30.06,WNW,294,4.0,6.0,80,0.00,,,0.00,,2013-02-16 08:42:00,
2013-02-16 03:52:00,24.0,19.0,30.06,West,273,6.0,9.0,80,0.00,,,0.00,,2013-02-16 08:52:00,
2013-02-16 04:02:00,24.0,20.0,30.06,West,277,6.0,10.0,84,0.00,,,0.00,,2013-02-16 09:02:00,
2013-02-16 04:11:00,24.0,20.0,30.06,West,277,6.0,10.0,84,0.00,,,0.00,,2013-02-16 09:11:00,
2013-02-16 04:21:00,23.0,19.0,30.05,West,271,4.0,7.0,86,0.00,,,0.00,,2013-02-16 09:21:00,
2013-02-16 04:32:00,23.0,20.0,30.05,West,272,2.0,5.0,87,0.00,,,0.00,,2013-02-16 09:32:00,
2013-02-16 04:42:00,23.0,20.0,30.05,West,272,2.0,5.0,87,0.00,,,0.00,,2013-02-16 09:42:00,
2013-02-16 04:52:00,23.0,20.0,30.05,West,260,3.0,5.0,87,0.00,,,0.00,,2013-02-16 09:52:00,
2013-02-16 05:01:00,23.0,19.0,30.05,WSW,238,4.0,8.0,86,0.00,,,0.00,,2013-02-16 10:01:00,
2013-02-16 05:11:00,23.0,19.0,30.05,WSW,238,4.0,8.0,86,0.00,,,0.00,,2013-02-16 10:11:00,
2013-02-16 05:21:00,23.0,19.0,30.04,West,260,5.0,8.0,86,0.00,,,0.00,,2013-02-16 10:21:00,
2013-02-16 05:32:00,23.0,19.0,30.04,West,259,5.0,10.0,86,0.00,,,0.00,,2013-02-16 10:32:00,
2013-02-16 05:42:00,23.0,19.0,30.04,West,259,5.0,10.0,86,0.00,,,0.00,,2013-02-16 10:42:00,
2013-02-16 05:52:00,23.0,19.0,30.04,West,265,6.0,9.0,86,0.00,,,0.00,,2013-02-16 10:52:00,
2013-02-16 06:02:00,23.0,19.0,30.04,West,266,4.0,9.0,86,0.00,,,0.00,,2013-02-16 11:02:00,
2013-02-16 06:11:00,23.0,19.0,30.04,West,266,4.0,9.0,86,0.00,,,0.00,,2013-02-16 11:11:00,
2013-02-16 06:22:00,23.0,19.0,30.04,West,265,4.0,6.0,85,0.00,,,0.00,,2013-02-16 11:22:00,
2013-02-16 06:32:00,23.0,18.0,30.04,West,269,7.0,12.0,81,0.00,,,0.00,,2013-02-16 11:32:00,
2013-02-16 06:42:00,23.0,18.0,30.04,West,269,7.0,12.0,81,0.00,,,0.00,,2013-02-16 11:42:00,
2013-02-16 06:52:00,22.0,17.0,30.04,West,264,5.0,11.0,81,0.00,,,0.00,,2013-02-16 11:52:00,
2013-02-16 07:02:00,22.0,17.0,30.03,West,268,7.0,14.0,82,0.00,,,0.00,,2013-02-16 12:02:00,
2013-02-16 07:12:00,22.0,17.0,30.03,West,268,7.0,14.0,82,0.00,,,0.00,,2013-02-16 12:12:00,
2013-02-16 07:22:00,22.0,18.0,30.04,West,272,6.0,11.0,84,0.00,,,0.00,,2013-02-16 12:22:00,
2013-02-16 07:32:00,22.0,18.0,30.04,NW,304,9.0,14.0,85,0.00,,,0.00,,2013-02-16 12:32:00,
2013-02-16 07:42:00,22.0,18.0,30.04,NW,304,9.0,14.0,85,0.00,,,0.00,,2013-02-16 12:42:00,
2013-02-16 07:52:00,22.0,18.0,30.04,West,272,8.0,15.0,84,0.00,,,0.00,,2013-02-16 12:52:00,
2013-02-16 08:02:00,22.0,18.0,30.04,NNW,344,6.0,14.0,83,0.00,,,0.00,,2013-02-16 13:02:00,
2013-02-16 08:12:00,22.0,17.0,30.05,West,275,9.0,17.0,81,0.00,,,0.00,,2013-02-16 13:12:00,
2013-02-16 08:21:00,22.0,17.0,30.05,West,275,9.0,17.0,81,0.00,,,0.00,,2013-02-16 13:21:00,
2013-02-16 08:32:00,21.0,16.0,30.05,WNW,292,7.0,17.0,79,0.00,,,0.00,,2013-02-16 13:32:00,
2013-02-16 08:41:00,21.0,16.0,30.05,WNW,292,7.0,17.0,79,0.00,,,0.00,,2013-02-16 13:41:00,
2013-02-16 08:52:00,22.0,16.0,30.05,NNW,344,8.0,15.0,78,0.00,,,0.00,,2013-02-16 13:52:00,
2013-02-16 09:01:00,21.0,15.0,30.05,WNW,286,8.0,15.0,78,0.00,,,0.00,,2013-02-16 14:01:00,
2013-02-16 09:11:00,21.0,15.0,30.05,WNW,286,8.0,15.0,78,0.00,,,0.00,,2013-02-16 14:11:00,
2013-02-16 09:21:00,21.0,16.0,30.05,West,281,10.0,15.0,79,0.00,,,0.00,,2013-02-16 14:21:00,
2013-02-16 09:32:00,21.0,15.0,30.05,WNW,285,9.0,17.0,77,0.00,,,0.00,,2013-02-16 14:32:00,
2013-02-16 09:42:00,21.0,15.0,30.05,WNW,285,9.0,17.0,77,0.00,,,0.00,,2013-02-16 14:42:00,
2013-02-16 09:52:00,21.0,14.0,30.05,WNW,285,12.0,19.0,75,0.00,,,0.00,,2013-02-16 14:52:00,
2013-02-16 10:02:00,21.0,14.0,30.05,West,275,8.0,17.0,74,0.00,,,0.00,,2013-02-16 15:02:00,
2013-02-16 10:11:00,21.0,14.0,30.05,West,275,8.0,17.0,74,0.00,,,0.00,,2013-02-16 15:11:00,
2013-02-16 10:22:00,22.0,14.0,30.05,West,277,9.0,15.0,71,0.00,,,0.00,,2013-02-16 15:22:00,
2013-02-16 10:32:00,22.0,14.0,30.06,WSW,247,9.0,17.0,71,0.00,,,0.00,,2013-02-16 15:32:00,
2013-02-16 10:42:00,22.0,14.0,30.06,WSW,247,9.0,17.0,71,0.00,,,0.00,,2013-02-16 15:42:00,
2013-02-16 10:52:00,22.0,14.0,30.06,West,279,7.0,17.0,70,0.00,,,0.00,,2013-02-16 15:52:00,
2013-02-16 11:01:00,22.0,15.0,30.06,WNW,293,8.0,18.0,74,0.00,,,0.00,,2013-02-16 16:01:00,
2013-02-16 11:11:00,22.0,15.0,30.06,WNW,293,8.0,18.0,74,0.00,,,0.00,,2013-02-16 16:11:00,
2013-02-16 11:21:00,22.0,14.0,30.06,West,268,8.0,16.0,72,0.00,,,0.00,,2013-02-16 16:21:00,
2013-02-16 11:32:00,22.0,14.0,30.06,WNW,299,9.0,15.0,71,0.00,,,0.00,,2013-02-16 16:32:00,
2013-02-16 11:42:00,22.0,14.0,30.06,WNW,299,9.0,15.0,71,0.00,,,0.00,,2013-02-16 16:42:00,
2013-02-16 11:52:00,21.0,13.0,30.06,WNW,286,10.0,19.0,71,0.00,,,0.00,,2013-02-16 16:52:00,
2013-02-16 12:01:00,21.0,14.0,30.06,West,265,12.0,18.0,75,0.00,,,0.00,,2013-02-16 17:01:00,
2013-02-16 12:11:00,21.0,14.0,30.06,West,265,12.0,18.0,75,0.00,,,0.00,,2013-02-16 17:11:00,
2013-02-16 12:22:00,20.0,16.0,30.06,NW,308,10.0,17.0,85,0.00,,,0.00,,2013-02-16 17:22:00,
2013-02-16 12:32:00,20.0,16.0,30.06,WNW,284,8.0,19.0,85,0.00,,,0.00,,2013-02-16 17:32:00,
2013-02-16 12:42:00,20.0,16.0,30.06,WNW,284,8.0,19.0,85,0.00,,,0.00,,2013-02-16 17:42:00,
2013-02-16 12:52:00,22.0,15.0,30.05,West,261,9.0,16.0,75,0.00,,,0.00,,2013-02-16 17:52:00,
2013-02-16 13:02:00,21.0,15.0,30.05,West,275,10.0,19.0,78,0.00,,,0.00,,2013-02-16 18:02:00,
2013-02-16 13:11:00,21.0,14.0,30.04,WNW,286,9.0,21.0,75,0.00,,,0.00,,2013-02-16 18:11:00,
2013-02-16 13:21:00,21.0,14.0,30.04,WNW,286,9.0,21.0,75,0.00,,,0.00,,2013-02-16 18:21:00,
2013-02-16 13:33:00,21.0,13.0,30.04,West,278,10.0,20.0,72,0.00,,,0.00,,2013-02-16 18:33:00,
2013-02-16 13:42:00,21.0,13.0,30.04,West,278,10.0,20.0,72,0.00,,,0.00,,2013-02-16 18:42:00,
2013-02-16 13:52:00,21.0,15.0,30.04,WNW,300,11.0,19.0,77,0.00,,,0.00,,2013-02-16 18:52:00,
2013-02-16 14:02:00,21.0,13.0,30.04,NNW,338,11.0,21.0,72,0.00,,,0.00,,2013-02-16 19:02:00,
2013-02-16 14:11:00,21.0,13.0,30.04,NNW,338,11.0,21.0,72,0.00,,,0.00,,2013-02-16 19:11:00,
2013-02-16 14:22:00,20.0,15.0,30.04,WNW,291,10.0,21.0,79,0.00,,,0.00,,2013-02-16 19:22:00,
2013-02-16 14:32:00,20.0,15.0,30.04,NW,317,8.0,17.0,82,0.00,,,0.00,,2013-02-16 19:32:00,
2013-02-16 14:42:00,20.0,15.0,30.04,NW,317,8.0,17.0,82,0.00,,,0.00,,2013-02-16 19:42:00,
2013-02-16 14:52:00,20.0,13.0,30.04,West,270,9.0,18.0,75,0.00,,,0.00,,2013-02-16 19:52:00,
2013-02-16 15:01:00,20.0,12.0,30.04,WNW,290,11.0,20.0,71,0.00,,,0.00,,2013-02-16 20:01:00,
2013-02-16 15:11:00,20.0,12.0,30.05,NW,306,9.0,18.0,70,0.00,,,0.00,,2013-02-16 20:11:00,
2013-02-16 15:22:00,20.0,12.0,30.05,NW,306,9.0,18.0,70,0.00,,,0.00,,2013-02-16 20:22:00,
2013-02-16 15:32:00,20.0,10.0,30.05,West,277,10.0,20.0,65,0.00,,,0.00,,2013-02-16 20:32:00,
2013-02-16 15:42:00,20.0,10.0,30.05,West,277,10.0,20.0,65,0.00,,,0.00,,2013-02-16 20:42:00,
2013-02-16 15:52:00,20.0,9.0,30.05,West,276,12.0,21.0,62,0.00,,,0.00,,2013-02-16 20:52:00,
2013-02-16 16:02:00,20.0,9.0,30.05,WNW,294,9.0,20.0,62,0.00,,,0.00,,2013-02-16 21:02:00,
2013-02-16 16:11:00,20.0,9.0,30.05,WNW,294,9.0,20.0,62,0.00,,,0.00,,2013-02-16 21:11:00,
2013-02-16 16:21:00,20.0,10.0,30.06,West,265,8.0,16.0,64,0.00,,,0.00,,2013-02-16 21:21:00,
2013-02-16 16:32:00,18.0,13.0,30.06,NW,309,12.0,23.0,79,0.00,,,0.00,,2013-02-16 21:32:00,
2013-02-16 16:42:00,18.0,13.0,30.06,NW,309,12.0,23.0,79,0.00,,,0.00,,2013-02-16 21:42:00,
2013-02-16 16:52:00,18.0,12.0,30.06,WSW,254,8.0,15.0,78,0.00,,,0.00,,2013-02-16 21:52:00,
2013-02-16 17:01:00,19.0,13.0,30.06,WNW,283,8.0,17.0,77,0.00,,,0.00,,2013-02-16 22:01:00,
2013-02-16 17:11:00,19.0,13.0,30.06,WNW,283,8.0,17.0,77,0.00,,,0.00,,2013-02-16 22:11:00,
2013-02-16 17:21:00,18.0,10.0,30.07,West,275,8.0,15.0,71,0.00,,,0.00,,2013-02-16 22:21:00,
2013-02-16 17:32:00,19.0,11.0,30.07,NW,304,7.0,15.0,71,0.00,,,0.00,,2013-02-16 22:32:00,
2013-02-16 17:42:00,19.0,11.0,30.07,NW,304,7.0,15.0,71,0.00,,,0.00,,2013-02-16 22:42:00,
2013-02-16 17:52:00,19.0,11.0,30.07,West,259,7.0,14.0,70,0.00,,,0.00,,2013-02-16 22:52:00,
2013-02-16 18:02:00,18.0,11.0,30.07,WNW,283,9.0,16.0,72,0.00,,,0.00,,2013-02-16 23:02:00,
2013-02-16 18:11:00,18.0,11.0,30.08,WNW,288,9.0,12.0,75,0.00,,,0.00,,2013-02-16 23:11:00,
2013-02-16 18:21:00,18.0,11.0,30.08,WNW,288,9.0,12.0,75,0.00,,,0.00,,2013-02-16 23:21:00,
2013-02-16 18:32:00,17.0,11.0,30.08,WNW,288,8.0,18.0,77,0.00,,,0.00,,2013-02-16 23:32:00,
2013-02-16 18:42:00,17.0,11.0,30.08,WNW,288,8.0,18.0,77,0.00,,,0.00,,2013-02-16 23:42:00,
2013-02-16 18:52:00,17.0,10.0,30.09,NW,309,5.0,13.0,75,0.00,,,0.00,,2013-02-16 23:52:00,
2013-02-16 19:02:00,17.0,10.0,30.09,WNW,290,10.0,15.0,73,0.00,,,0.00,,2013-02-17 00:02:00,
2013-02-16 19:12:00,17.0,10.0,30.09,WNW,290,10.0,15.0,73,0.00,,,0.00,,2013-02-17 00:12:00,
2013-02-16 19:22:00,17.0,10.0,30.09,West,277,7.0,11.0,74,0.00,,,0.00,,2013-02-17 00:22:00,
2013-02-16 19:32:00,17.0,10.0,30.09,WNW,294,7.0,11.0,75,0.00,,,0.00,,2013-02-17 00:32:00,
2013-02-16 19:42:00,17.0,10.0,30.09,WNW,294,7.0,11.0,75,0.00,,,0.00,,2013-02-17 00:42:00,
2013-02-16 19:52:00,17.0,11.0,30.10,NW,317,6.0,9.0,77,0.00,,,0.00,,2013-02-17 00:52:00,
2013-02-16 20:01:00,17.0,11.0,30.10,WNW,292,6.0,10.0,78,0.00,,,0.00,,2013-02-17 01:01:00,
2013-02-16 20:11:00,17.0,11.0,30.10,WNW,292,6.0,10.0,78,0.00,,,0.00,,2013-02-17 01:11:00,
2013-02-16 20:21:00,17.0,12.0,30.10,NW,305,7.0,11.0,79,0.00,,,0.00,,2013-02-17 01:21:00,
2013-02-16 20:31:00,16.0,11.0,30.10,WNW,301,7.0,10.0,80,0.00,,,0.00,,2013-02-17 01:31:00,
2013-02-16 20:41:00,16.0,11.0,30.10,WNW,301,7.0,10.0,80,0.00,,,0.00,,2013-02-17 01:41:00,
2013-02-16 20:52:00,16.0,11.0,30.09,WSW,242,5.0,11.0,80,0.00,,,0.00,,2013-02-17 01:52:00,
2013-02-16 21:01:00,16.0,11.0,30.09,West,273,6.0,8.0,82,0.00,,,0.00,,2013-02-17 02:01:00,
2013-02-16 21:11:00,16.0,11.0,30.09,West,273,6.0,8.0,82,0.00,,,0.00,,2013-02-17 02:11:00,
2013-02-16 21:21:00,16.0,11.0,30.09,West,266,4.0,7.0,82,0.00,,,0.00,,2013-02-17 02:21:00,
2013-02-16 21:31:00,15.0,11.0,30.09,West,277,3.0,7.0,83,0.00,,,0.00,,2013-02-17 02:31:00,
2013-02-16 21:41:00,15.0,11.0,30.09,West,277,3.0,7.0,83,0.00,,,0.00,,2013-02-17 02:41:00,
2013-02-16 21:52:00,15.0,11.0,30.10,West,265,4.0,6.0,84,0.00,,,0.00,,2013-02-17 02:52:00,
2013-02-16 22:02:00,15.0,11.0,30.10,West,280,5.0,8.0,83,0.00,,,0.00,,2013-02-17 03:02:00,
2013-02-16 22:11:00,15.0,11.0,30.10,West,280,5.0,8.0,83,0.00,,,0.00,,2013-02-17 03:11:00,
2013-02-16 22:21:00,15.0,11.0,30.10,WSW,257,5.0,7.0,84,0.00,,,0.00,,2013-02-17 03:21:00,
2013-02-16 22:32:00,15.0,11.0,30.10,West,275,5.0,7.0,85,0.00,,,0.00,,2013-02-17 03:32:00,
2013-02-16 22:42:00,15.0,11.0,30.10,West,275,5.0,7.0,85,0.00,,,0.00,,2013-02-17 03:42:00,
2013-02-16 22:52:00,15.0,11.0,30.10,West,272,3.0,6.0,85,0.00,,,0.00,,2013-02-17 03:52:00,
2013-02-16 23:01:00,15.0,11.0,30.10,West,271,3.0,6.0,85,0.00,,,0.00,,2013-02-17 04:01:00,
2013-02-16 23:11:00,15.0,11.0,30.10,West,277,5.0,9.0,85,0.00,,,0.00,,2013-02-17 04:11:00,
2013-02-16 23:21:00,15.0,11.0,30.10,West,277,5.0,9.0,85,0.00,,,0.00,,2013-02-17 04:21:00,
2013-02-16 23:31:00,15.0,11.0,30.10,West,267,3.0,7.0,85,0.00,,,0.00,,2013-02-17 04:31:00,
2013-02-16 23:42:00,15.0,11.0,30.10,West,267,3.0,7.0,85,0.00,,,0.00,,2013-02-17 04:42:00,
2013-02-16 23:52:00,14.0,10.0,30.09,West,265,3.0,7.0,84,0.00,,,0.00,,2013-02-17 04:52:00,